• In Russia
  • List of Countries
  • For 7 days
  • Water Temperature
  • Satellite Maps
  • Weather Map
  • Weather Widgets
  • user-avatar
    Login

    Hourly Weather Szigetvar

    Today, 17 August, Thursday

    Time Temperature Precipitation Wind Pressure Humidity
    00:00 +21°C° 0 mm 2 mps 754 mmHg 57%
    01:00 +20°C° 0 mm 2 mps 754 mmHg 61%
    02:00 +20°C° 0 mm 2 mps 754 mmHg 65%
    03:00 +20°C° 0 mm 2 mps 754 mmHg 70%
    04:00 +19°C° 0 mm 2 mps 754 mmHg 74%
    05:00 +21°C° 0 mm 2 mps 754 mmHg 70%
    06:00 +23°C° 0 mm 2 mps 754 mmHg 66%
    07:00 +25°C° 0 mm 2 mps 755 mmHg 59%
    08:00 +27°C° 0 mm 2 mps 755 mmHg 51%
    09:00 +30°C° 0 mm 2 mps 754 mmHg 43%
    10:00 +32°C° 0 mm 2 mps 754 mmHg 35%
    11:00 +34°C° 0 mm 2 mps 754 mmHg 32%
    12:00 +35°C° 0 mm 2 mps 754 mmHg 28%
    13:00 +36°C° 0 mm 2 mps 753 mmHg 25%
    14:00 +36°C° 0 mm 2 mps 753 mmHg 26%
    15:00 +34°C° 0 mm 1 mps 753 mmHg 27%
    16:00 +34°C° 0 mm 1 mps 752 mmHg 28%
    17:00 +32°C° 0 mm 1 mps 752 mmHg 31%
    18:00 +30°C° 0 mm 1 mps 752 mmHg 34%
    19:00 +29°C° 0 mm 1 mps 752 mmHg 37%
    20:00 +28°C° 0 mm 1 mps 752 mmHg 39%
    21:00 +27°C° 0 mm 1 mps 753 mmHg 41%
    22:00 +26°C° 0 mm 2 mps 753 mmHg 43%
    23:00 +25°C° 0 mm 1 mps 753 mmHg 45%

    Tomorrow, 18 August, Friday

    Time Temperature Precipitation Wind Pressure Humidity
    00:00 +24°C° 0 mm 1 mps 753 mmHg 47%
    01:00 +23°C° 0 mm 1 mps 753 mmHg 49%
    02:00 +23°C° 0 mm 1 mps 753 mmHg 50%
    03:00 +22°C° 0 mm 1 mps 753 mmHg 51%
    04:00 +22°C° 0 mm 1 mps 753 mmHg 52%
    05:00 +23°C° 0 mm 1 mps 753 mmHg 49%
    06:00 +25°C° 0 mm 1 mps 753 mmHg 46%
    07:00 +26°C° 0 mm 1 mps 754 mmHg 42%
    08:00 +29°C° 0 mm 1 mps 753 mmHg 37%
    09:00 +32°C° 0 mm 1 mps 753 mmHg 32%
    10:00 +35°C° 0 mm 1 mps 753 mmHg 27%
    11:00 +35°C° 0 mm 1 mps 753 mmHg 24%
    12:00 +37°C° 0 mm 2 mps 753 mmHg 22%
    13:00 +38°C° 0 mm 2 mps 752 mmHg 19%
    14:00 +38°C° 0 mm 2 mps 752 mmHg 19%
    15:00 +38°C° 0 mm 2 mps 751 mmHg 19%
    16:00 +38°C° 0 mm 2 mps 751 mmHg 19%
    17:00 +36°C° 0 mm 2 mps 750 mmHg 23%
    18:00 +32°C° 0 mm 2 mps 750 mmHg 27%
    19:00 +30°C° 0 mm 2 mps 750 mmHg 30%
    20:00 +28°C° 0 mm 1 mps 750 mmHg 33%
    21:00 +27°C° 0 mm 1 mps 750 mmHg 36%
    22:00 +26°C° 0 mm 1 mps 750 mmHg 39%
    23:00 +25°C° 0 mm 1 mps 750 mmHg 40%

    Day after tomorrow, 19 August, Saturday

    Time Temperature Precipitation Wind Pressure Humidity
    00:00 +24°C° 0 mm 1 mps 750 mmHg 42%
    01:00 +24°C° 0 mm 1 mps 750 mmHg 43%
    02:00 +23°C° 0 mm 1 mps 750 mmHg 45%
    03:00 +23°C° 0 mm 1 mps 750 mmHg 46%
    04:00 +22°C° 0 mm 1 mps 750 mmHg 47%
    05:00 +24°C° 0 mm 1 mps 750 mmHg 46%
    06:00 +25°C° 0 mm 2 mps 750 mmHg 44%
    07:00 +27°C° 0 mm 2 mps 750 mmHg 42%
    08:00 +29°C° 0 mm 2 mps 750 mmHg 39%
    09:00 +31°C° 0 mm 3 mps 751 mmHg 35%
    10:00 +34°C° 0 mm 3 mps 751 mmHg 32%
    11:00 +35°C° 0 mm 3 mps 750 mmHg 30%
    12:00 +36°C° 0 mm 3 mps 750 mmHg 28%
    13:00 +37°C° 0 mm 3 mps 750 mmHg 26%
    14:00 +36°C° 0 mm 5 mps 750 mmHg 29%
    15:00 +34°C° 0 mm 6 mps 750 mmHg 33%
    16:00 +33°C° 0 mm 7 mps 750 mmHg 36%
    17:00 +29°C° 0.2 mm 7 mps 750 mmHg 48%
    18:00 +26°C° 0.2 mm 6 mps 751 mmHg 60%
    19:00 +21°C° 0.2 mm 6 mps 751 mmHg 71%
    20:00 +20°C° 1 mm 6 mps 752 mmHg 76%
    21:00 +19°C° 1 mm 5 mps 752 mmHg 81%
    22:00 +17°C° 1 mm 5 mps 753 mmHg 86%
    23:00 +18°C° 1.5 mm 4 mps 753 mmHg 88%

    20 August, Sunday

    Time Temperature Precipitation Wind Pressure Humidity
    00:00 +18°C° 1.5 mm 4 mps 753 mmHg 89%
    01:00 +18°C° 1.5 mm 3 mps 754 mmHg 91%
    02:00 +18°C° 1 mm 3 mps 754 mmHg 91%
    03:00 +17°C° 1 mm 3 mps 754 mmHg 92%
    04:00 +17°C° 1 mm 3 mps 754 mmHg 92%
    05:00 +18°C° 0.4 mm 3 mps 754 mmHg 90%
    06:00 +18°C° 0.4 mm 4 mps 754 mmHg 89%
    07:00 +18°C° 0.4 mm 4 mps 754 mmHg 88%
    08:00 +19°C° 0 mm 4 mps 754 mmHg 80%
    09:00 +20°C° 0 mm 4 mps 754 mmHg 72%
    10:00 +21°C° 0 mm 4 mps 755 mmHg 64%
    11:00 +23°C° 0 mm 5 mps 754 mmHg 53%
    12:00 +26°C° 0 mm 5 mps 754 mmHg 42%
    13:00 +28°C° 0 mm 5 mps 754 mmHg 31%
    14:00 +28°C° 0 mm 5 mps 754 mmHg 31%
    15:00 +28°C° 0 mm 5 mps 753 mmHg 31%
    16:00 +28°C° 0 mm 5 mps 753 mmHg 31%
    17:00 +26°C° 0 mm 4 mps 753 mmHg 36%
    18:00 +25°C° 0 mm 3 mps 754 mmHg 42%
    19:00 +22°C° 0 mm 3 mps 754 mmHg 47%
    20:00 +21°C° 0 mm 2 mps 754 mmHg 51%
    21:00 +20°C° 0 mm 2 mps 755 mmHg 56%
    22:00 +18°C° 0 mm 2 mps 755 mmHg 61%
    23:00 +18°C° 0 mm 2 mps 755 mmHg 63%

    21 August, Monday

    Time Temperature Precipitation Wind Pressure Humidity
    00:00 +17°C° 0 mm 2 mps 755 mmHg 64%
    01:00 +17°C° 0 mm 2 mps 756 mmHg 66%
    02:00 +16°C° 0 mm 2 mps 756 mmHg 66%
    03:00 +16°C° 0 mm 3 mps 756 mmHg 66%
    04:00 +16°C° 0 mm 3 mps 756 mmHg 67%
    05:00 +17°C° 0 mm 3 mps 756 mmHg 62%
    06:00 +18°C° 0 mm 4 mps 756 mmHg 58%
    07:00 +19°C° 0 mm 5 mps 756 mmHg 54%
    08:00 +20°C° 0 mm 5 mps 756 mmHg 48%
    09:00 +22°C° 0 mm 5 mps 756 mmHg 42%
    10:00 +24°C° 0 mm 6 mps 756 mmHg 36%
    11:00 +26°C° 0 mm 5 mps 755 mmHg 33%
    12:00 +27°C° 0 mm 5 mps 755 mmHg 30%
    13:00 +28°C° 0 mm 5 mps 754 mmHg 28%
    14:00 +28°C° 0 mm 5 mps 754 mmHg 28%
    15:00 +28°C° 0 mm 5 mps 754 mmHg 28%
    16:00 +28°C° 0 mm 5 mps 754 mmHg 28%
    17:00 +26°C° 0 mm 4 mps 754 mmHg 33%
    18:00 +24°C° 0 mm 3 mps 754 mmHg 37%
    19:00 +21°C° 0 mm 2 mps 754 mmHg 42%
    20:00 +20°C° 0 mm 2 mps 754 mmHg 45%
    21:00 +19°C° 0 mm 2 mps 754 mmHg 48%
    22:00 +18°C° 0 mm 2 mps 755 mmHg 52%
    23:00 +17°C° 0 mm 2 mps 755 mmHg 55%

    22 August, Tuesday

    Time Temperature Precipitation Wind Pressure Humidity
    00:00 +17°C° 0 mm 2 mps 755 mmHg 57%
    01:00 +16°C° 0 mm 2 mps 755 mmHg 60%
    02:00 +16°C° 0 mm 1 mps 755 mmHg 63%
    03:00 +15°C° 0 mm 1 mps 754 mmHg 65%
    04:00 +15°C° 0 mm 1 mps 754 mmHg 67%
    05:00 +16°C° 0 mm 1 mps 754 mmHg 63%
    06:00 +19°C° 0 mm 1 mps 755 mmHg 59%
    07:00 +20°C° 0 mm 1 mps 755 mmHg 55%
    08:00 +21°C° 0 mm 2 mps 754 mmHg 49%
    09:00 +24°C° 0 mm 2 mps 754 mmHg 43%
    10:00 +26°C° 0 mm 2 mps 754 mmHg 37%
    11:00 +27°C° 0 mm 2 mps 753 mmHg 34%
    12:00 +29°C° 0 mm 2 mps 753 mmHg 32%
    13:00 +30°C° 0 mm 2 mps 752 mmHg 29%
    14:00 +30°C° 0 mm 2 mps 752 mmHg 29%
    15:00 +30°C° 0 mm 2 mps 751 mmHg 29%
    16:00 +30°C° 0 mm 2 mps 751 mmHg 29%
    17:00 +28°C° 0 mm 2 mps 751 mmHg 34%
    18:00 +26°C° 0 mm 2 mps 750 mmHg 39%
    19:00 +24°C° 0 mm 1 mps 750 mmHg 44%
    20:00 +23°C° 0 mm 2 mps 750 mmHg 46%
    21:00 +23°C° 0 mm 2 mps 750 mmHg 48%
    22:00 +21°C° 0 mm 2 mps 750 mmHg 50%
    23:00 +20°C° 0 mm 2 mps 750 mmHg 51%
    Show more